Tracking 19177 objects as of 25-May-2018
HD Live streaming from Space Station
objects crossing your sky now

NOAA 16 DEB

Track NOAA 16 DEB now!
10-day predictions


NORAD ID: 42385
Int'l Code: 2000-055SD
Perigee: 840.6 km
Apogee: 857.2 km
Inclination: 98.8 °
Period: 101.8 minutes
Semi major axis: 7219 km
RCS: Unknown
Launch date: September 21, 2000
Source: United States (US)
Launch site: AIR FORCE WESTERN TEST RANGE (AFWTR)

Note: This is SATELLITE DEBRIS
aabbcc
Your satellite tracking list
Your tracking list is empty




NASA's NSSDC Master Catalog

Two Line Element Set (TLE):
1 42385U 00055SD  18143.98347898 +.00000623 +00000-0 +34342-3 0  9995
2 42385 098.8110 216.2180 0011545 079.9238 280.3237 14.15166270109238
Source of the keplerian elements: AFSPC